Voltar ao catálogo

STARLINK-30292

AtivoComunicaçõesVLEO
NORAD 57844·PAYLOAD·🇺🇸 United States

Lançado Sep 12, 2023 de Vandenberg Space Force Base

Loading…

Próximas Passagens (próximas 24 horas)

TLE

AtualizadoSource: CelesTrak SupGP

Época: Sep 14, 2026, 22:23 UTC

1 57844C 23141E   26257.93312500 -.00037118  00000+0 -10968-2 0  2578
2 57844  53.1567 123.4607 0001276  88.3337 333.6611 15.34405544    17

Acompanhe STARLINK-30292 em tempo real com AllMySat

Download on the App Store